When you browse on this site, cookies collect data to enhance your experience and personalize the content and advertising you see.
Visit our Privacy Policy to learn more. By continuing to use the site, you agree to this use of cookies and data.
  • In United Kingdom
  • List of Countries
  • For 7 days
  • Water Temperature
  • Weather Map
  • Weather Widgets
  • user-avatar
    Login

    Hourly Weather Koudougou

    Today, 18 January, Saturday

    Time Temperature Precipitation Wind Pressure Humidity
    00:00 +22°C° 0 mm 4 mps 735 mmHg 18%
    01:00 +22°C° 0 mm 4 mps 734 mmHg 18%
    02:00 +21°C° 0 mm 5 mps 734 mmHg 18%
    03:00 +21°C° 0 mm 5 mps 734 mmHg 18%
    04:00 +20°C° 0 mm 4 mps 734 mmHg 18%
    05:00 +19°C° 0 mm 4 mps 734 mmHg 18%
    06:00 +19°C° 0 mm 4 mps 734 mmHg 19%
    07:00 +21°C° 0 mm 5 mps 735 mmHg 17%
    08:00 +24°C° 0 mm 6 mps 735 mmHg 15%
    09:00 +27°C° 0 mm 7 mps 736 mmHg 13%
    10:00 +29°C° 0 mm 7 mps 736 mmHg 11%
    11:00 +32°C° 0 mm 7 mps 736 mmHg 10%
    12:00 +35°C° 0 mm 6 mps 735 mmHg 8%
    13:00 +35°C° 0 mm 6 mps 735 mmHg 8%
    14:00 +36°C° 0 mm 5 mps 734 mmHg 8%
    15:00 +37°C° 0 mm 4 mps 733 mmHg 8%
    16:00 +35°C° 0 mm 4 mps 733 mmHg 8%
    17:00 +33°C° 0 mm 4 mps 733 mmHg 9%
    18:00 +30°C° 0 mm 3 mps 733 mmHg 10%
    19:00 +28°C° 0 mm 4 mps 733 mmHg 12%
    20:00 +26°C° 0 mm 4 mps 734 mmHg 13%
    21:00 +25°C° 0 mm 4 mps 734 mmHg 15%
    22:00 +23°C° 0 mm 4 mps 734 mmHg 16%
    23:00 +22°C° 0 mm 4 mps 734 mmHg 17%

    Tomorrow, 19 January, Sunday

    Time Temperature Precipitation Wind Pressure Humidity
    00:00 +21°C° 0 mm 4 mps 734 mmHg 18%
    01:00 +21°C° 0 mm 4 mps 734 mmHg 19%
    02:00 +20°C° 0 mm 4 mps 734 mmHg 20%
    03:00 +19°C° 0 mm 4 mps 733 mmHg 20%
    04:00 +19°C° 0 mm 4 mps 733 mmHg 21%
    05:00 +19°C° 0 mm 4 mps 733 mmHg 21%
    06:00 +18°C° 0 mm 4 mps 733 mmHg 21%
    07:00 +20°C° 0 mm 5 mps 734 mmHg 19%
    08:00 +23°C° 0 mm 6 mps 735 mmHg 17%
    09:00 +26°C° 0 mm 7 mps 735 mmHg 15%
    10:00 +28°C° 0 mm 6 mps 735 mmHg 13%
    11:00 +32°C° 0 mm 6 mps 734 mmHg 12%
    12:00 +34°C° 0 mm 6 mps 734 mmHg 10%
    13:00 +35°C° 0 mm 4 mps 733 mmHg 10%
    14:00 +36°C° 0 mm 3 mps 732 mmHg 9%
    15:00 +36°C° 0 mm 2 mps 731 mmHg 8%
    16:00 +34°C° 0 mm 2 mps 731 mmHg 9%
    17:00 +31°C° 0 mm 2 mps 731 mmHg 11%
    18:00 +29°C° 0 mm 2 mps 731 mmHg 12%
    19:00 +28°C° 0 mm 3 mps 731 mmHg 13%
    20:00 +27°C° 0 mm 3 mps 732 mmHg 14%
    21:00 +25°C° 0 mm 4 mps 732 mmHg 15%
    22:00 +25°C° 0 mm 4 mps 732 mmHg 16%
    23:00 +23°C° 0 mm 4 mps 732 mmHg 17%

    Day after tomorrow, 20 January, Monday

    Time Temperature Precipitation Wind Pressure Humidity
    00:00 +22°C° 0 mm 4 mps 732 mmHg 18%
    01:00 +22°C° 0 mm 4 mps 732 mmHg 19%
    02:00 +21°C° 0 mm 3 mps 731 mmHg 20%
    03:00 +20°C° 0 mm 3 mps 731 mmHg 21%
    04:00 +20°C° 0 mm 3 mps 731 mmHg 22%
    05:00 +20°C° 0 mm 3 mps 731 mmHg 23%
    06:00 +19°C° 0 mm 3 mps 731 mmHg 24%
    07:00 +22°C° 0 mm 4 mps 732 mmHg 22%
    08:00 +25°C° 0 mm 4 mps 733 mmHg 19%
    09:00 +28°C° 0 mm 5 mps 733 mmHg 17%
    10:00 +30°C° 0 mm 4 mps 733 mmHg 15%
    11:00 +34°C° 0 mm 4 mps 732 mmHg 12%
    12:00 +37°C° 0 mm 3 mps 732 mmHg 10%
    13:00 +37°C° 0 mm 3 mps 731 mmHg 9%
    14:00 +38°C° 0 mm 2 mps 730 mmHg 9%
    15:00 +39°C° 0 mm 2 mps 730 mmHg 8%
    16:00 +36°C° 0 mm 2 mps 730 mmHg 10%
    17:00 +32°C° 0 mm 1 mps 730 mmHg 12%
    18:00 +30°C° 0 mm 1 mps 730 mmHg 14%
    19:00 +28°C° 0 mm 1 mps 730 mmHg 15%
    20:00 +27°C° 0 mm 1 mps 731 mmHg 16%
    21:00 +26°C° 0 mm 1 mps 731 mmHg 18%
    22:00 +25°C° 0 mm 1 mps 731 mmHg 19%
    23:00 +24°C° 0 mm 1 mps 731 mmHg 20%

    21 January, Tuesday

    Time Temperature Precipitation Wind Pressure Humidity
    00:00 +24°C° 0 mm 1 mps 731 mmHg 21%
    01:00 +24°C° 0 mm 1 mps 731 mmHg 21%
    02:00 +23°C° 0 mm 1 mps 731 mmHg 22%
    03:00 +23°C° 0 mm 1 mps 731 mmHg 22%
    04:00 +23°C° 0 mm 1 mps 731 mmHg 22%
    05:00 +24°C° 0 mm 2 mps 731 mmHg 21%
    06:00 +24°C° 0 mm 3 mps 732 mmHg 21%
    07:00 +26°C° 0 mm 3 mps 733 mmHg 19%
    08:00 +28°C° 0 mm 4 mps 733 mmHg 16%
    09:00 +32°C° 0 mm 4 mps 734 mmHg 14%
    10:00 +34°C° 0 mm 5 mps 734 mmHg 13%
    11:00 +36°C° 0 mm 5 mps 733 mmHg 11%
    12:00 +40°C° 0 mm 5 mps 733 mmHg 10%
    13:00 +40°C° 0 mm 4 mps 732 mmHg 10%
    14:00 +40°C° 0 mm 3 mps 731 mmHg 9%
    15:00 +40°C° 0 mm 3 mps 731 mmHg 9%
    16:00 +38°C° 0 mm 3 mps 731 mmHg 10%
    17:00 +37°C° 0 mm 3 mps 731 mmHg 12%
    18:00 +35°C° 0 mm 3 mps 731 mmHg 13%
    19:00 +34°C° 0 mm 3 mps 731 mmHg 14%
    20:00 +31°C° 0 mm 3 mps 732 mmHg 15%
    21:00 +30°C° 0 mm 3 mps 732 mmHg 16%
    22:00 +30°C° 0 mm 3 mps 732 mmHg 17%
    23:00 +29°C° 0 mm 4 mps 732 mmHg 19%

    22 January, Wednesday

    Time Temperature Precipitation Wind Pressure Humidity
    00:00 +28°C° 0 mm 4 mps 732 mmHg 20%
    01:00 +27°C° 0 mm 4 mps 732 mmHg 20%
    02:00 +26°C° 0 mm 4 mps 732 mmHg 21%
    03:00 +26°C° 0 mm 4 mps 732 mmHg 22%
    04:00 +25°C° 0 mm 4 mps 732 mmHg 23%
    05:00 +25°C° 0 mm 4 mps 732 mmHg 23%
    06:00 +25°C° 0 mm 4 mps 732 mmHg 24%
    07:00 +27°C° 0 mm 5 mps 733 mmHg 21%
    08:00 +30°C° 0 mm 6 mps 733 mmHg 18%
    09:00 +33°C° 0 mm 6 mps 734 mmHg 15%
    10:00 +36°C° 0 mm 6 mps 734 mmHg 13%
    11:00 +39°C° 0 mm 6 mps 733 mmHg 11%
    12:00 +41°C° 0 mm 7 mps 733 mmHg 10%
    13:00 +41°C° 0 mm 6 mps 732 mmHg 9%
    14:00 +42°C° 0 mm 6 mps 732 mmHg 9%
    15:00 +42°C° 0 mm 5 mps 731 mmHg 9%
    16:00 +40°C° 0 mm 5 mps 731 mmHg 10%
    17:00 +37°C° 0 mm 4 mps 731 mmHg 10%
    18:00 +35°C° 0 mm 4 mps 731 mmHg 11%
    19:00 +34°C° 0 mm 4 mps 731 mmHg 12%
    20:00 +33°C° 0 mm 4 mps 732 mmHg 12%
    21:00 +30°C° 0 mm 5 mps 732 mmHg 13%
    22:00 +30°C° 0 mm 5 mps 733 mmHg 13%
    23:00 +29°C° 0 mm 5 mps 733 mmHg 13%

    23 January, Thursday

    Time Temperature Precipitation Wind Pressure Humidity
    00:00 +28°C° 0 mm 6 mps 733 mmHg 14%
    01:00 +28°C° 0 mm 5 mps 732 mmHg 14%
    02:00 +27°C° 0 mm 5 mps 732 mmHg 14%
    03:00 +27°C° 0 mm 5 mps 732 mmHg 14%
    04:00 +26°C° 0 mm 5 mps 732 mmHg 14%
    05:00 +25°C° 0 mm 5 mps 732 mmHg 15%
    06:00 +25°C° 0 mm 5 mps 732 mmHg 15%
    07:00 +27°C° 0 mm 6 mps 733 mmHg 13%
    08:00 +29°C° 0 mm 7 mps 733 mmHg 11%
    09:00 +31°C° 0 mm 8 mps 734 mmHg 10%
    10:00 +34°C° 0 mm 8 mps 734 mmHg 8%
    11:00 +37°C° 0 mm 8 mps 733 mmHg 7%
    12:00 +39°C° 0 mm 7 mps 733 mmHg 6%
    13:00 +39°C° 0 mm 7 mps 732 mmHg 6%
    14:00 +40°C° 0 mm 7 mps 732 mmHg 6%
    15:00 +40°C° 0 mm 7 mps 731 mmHg 5%
    16:00 +38°C° 0 mm 6 mps 731 mmHg 6%
    17:00 +36°C° 0 mm 5 mps 731 mmHg 7%
    18:00 +34°C° 0 mm 4 mps 731 mmHg 7%
    19:00 +32°C° 0 mm 4 mps 731 mmHg 8%
    20:00 +30°C° 0 mm 4 mps 732 mmHg 8%
    21:00 +28°C° 0 mm 5 mps 733 mmHg 9%
    22:00 +27°C° 0 mm 5 mps 733 mmHg 9%
    23:00 +26°C° 0 mm 5 mps 733 mmHg 9%
    Show more